[[{"header":{"parameterUnit":"m.s-1","parameterCategory":1,"la1":30.2991,"la2":30.254,"lo1":-89.0895,"lo2":-89.0444,"dy":0.0017,"dx":0.0017,"nx":28,"ny":28,"refTime":"2024-07-22T03:00:00:Z","depth":0,"parameterNumber":2,"parameterNumberName":"U-component_of_WINDS"},"data":[0,0,0,0,0,0,0,0,0,0,0,0,0,0,0,0,0,0,0,0,0,0,0,0,0,0,0,0,0,0,0,0,0,0,0,0,0,0,0,0,0,0,0,0,0,0,0,0,0,0,0,0,0,0,0,0,0,0,1.2352,1.2351,0,1.2342,1.2342,1.2342,1.2232,1.2229,1.2226,1.2224,1.2224,1.2227,1.223,0,0,0,0,0,0,0,0,0,0,0,0,0,1.2284,1.2286,1.2352,1.2351,1.2351,1.2342,1.2342,1.2342,1.2232,1.2229,1.2225,1.2222,1.2223,1.2227,1.223,0,0,0,0,0,0,0,0,0,0,0,0,0,1.2298,1.2286,1.2352,1.2295,1.229,1.2342,1.2342,1.2342,1.2233,1.2229,1.2225,1.2221,1.2222,1.2226,1.223,1.2339,0,0,1.2242,1.2244,0,0,0,0,0,0,0,0,1.2297,1.2301,1.2304,1.2299,1.2294,1.2283,1.2318,1.2341,1.2234,1.2255,1.2223,1.2219,1.2248,1.225,1.2257,1.2339,1.2339,1.2243,1.2245,1.2247,1.2248,0,0,0,0,0,0,0,1.2296,1.23,1.2348,1.2304,1.2298,1.2273,1.2271,1.2322,1.2276,1.2253,1.2245,1.2245,1.2245,1.2254,1.2257,1.2339,1.2242,1.2246,1.2248,1.225,1.2507,1.2512,0,0,0,0,0,0,1.2302,1.23,1.2348,1.2348,1.2285,1.2278,1.2275,1.2291,1.2275,1.2268,1.2248,1.224,1.2249,1.2252,1.2256,1.2381,1.2247,1.225,1.2253,1.2503,1.2508,1.2513,0,0,0,0,0,0,1.2301,1.2307,1.2349,1.2322,1.2325,1.2283,1.2303,1.2293,1.2302,1.2271,1.2263,1.2266,1.2246,1.2251,1.2318,1.238,1.2252,1.2256,1.2498,1.2505,1.2511,1.2633,0,0,0,0,0,0,1.2299,1.2307,1.2346,1.2323,1.2327,1.2408,1.2306,1.2296,1.2308,1.2297,1.2285,1.2279,1.2243,1.2313,1.2322,1.2383,1.2259,1.2492,1.2501,1.2509,1.2623,1.2643,1.266,0,0,0,0,0,1.2297,1.2384,1.2349,1.2355,1.2374,1.2412,1.2414,1.2368,1.2313,1.2353,1.2333,1.228,1.2371,1.232,1.233,1.2393,1.2488,1.2498,1.2508,1.2615,1.2639,1.2659,0,0,0,0,0,0,1.2419,1.238,1.2341,1.2421,1.242,1.2393,1.2442,1.2395,1.2412,1.2401,1.2346,1.2344,1.242,1.2413,1.2357,1.2497,1.242,1.2433,1.2498,1.2521,1.2539,1.2539,1.2262,0,0,0,0,0,1.2454,1.2485,1.2451,1.2526,1.2526,1.2485,1.25,1.2463,1.2462,1.2462,1.2446,1.245,1.2478,1.2499,1.2525,1.2621,1.2618,1.2669,1.2688,1.2703,1.2715,1.2765,1.2788,1.2546,1.2546,1.2546,0,0,1.253,1.2512,1.2536,1.2549,1.2544,1.258,1.2485,1.2528,1.2554,1.2469,1.253,1.252,1.2519,1.2601,1.2637,1.2598,1.278,1.2716,1.2728,1.2732,1.2778,1.2801,1.2821,1.2553,1.2552,1.2551,0,0,1.2685,1.2674,1.2734,1.273,1.2722,1.2693,1.2708,1.2688,1.2676,1.2735,1.2672,1.2705,1.2756,1.2758,1.2766,1.292,1.2872,1.293,1.3027,1.3076,1.3095,1.3112,1.3167,1.3187,1.2942,1.2942,1.2942,0,1.278,1.2828,1.2772,1.2817,1.2826,1.2746,1.2808,1.2808,1.2811,1.282,1.2775,1.2837,1.2832,1.2913,1.295,1.2959,1.2975,1.2932,1.3096,1.3112,1.3127,1.3179,1.32,1.2949,1.2948,1.2948,1.2947,0,1.2946,1.298,1.303,1.303,1.3044,1.3099,1.3053,1.3075,1.3037,1.3014,1.3076,1.3066,1.3087,1.3104,1.307,1.3181,1.3156,1.3105,1.3027,1.3158,1.3206,1.3225,1.2959,1.2957,1.2955,1.2953,0,0,1.3178,1.3144,1.3164,1.3162,1.3147,1.3174,1.3225,1.3242,1.3261,1.3266,1.3308,1.3353,1.3304,1.3313,1.3278,1.3322,1.3444,1.3265,1.3264,1.3299,1.3566,1.3605,1.3629,1.3412,1.3415,1.3418,1.3566,0,1.3327,1.3408,1.3359,1.3449,1.348,1.3405,1.3449,1.3446,1.3426,1.3452,1.343,1.3462,1.3396,1.3401,1.344,1.3421,1.3497,1.3409,1.3453,1.3455,1.3455,1.3654,1.3695,1.3835,1.3584,1.3588,1.359,0,1.3511,1.3519,1.3611,1.3588,1.36,1.364,1.3651,1.3676,1.3672,1.3654,1.3663,1.3617,1.3668,1.359,1.366,1.3601,1.3616,1.3609,1.3614,1.3617,1.3531,1.3662,1.3879,1.39,1.3619,1.3616,1.3614,0,1.3672,1.3706,1.3764,1.3766,1.3741,1.3771,1.3762,1.3753,1.3766,1.3777,1.3785,1.3804,1.3814,1.3831,1.3791,1.3738,1.3867,1.3786,1.3856,1.3857,1.3887,1.3886,1.4109,1.3896,1.3896,1.3895,1.3895,0,1.3843,1.3903,1.3836,1.3872,1.3937,1.3881,1.3947,1.3931,1.3924,1.3958,1.3895,1.3929,1.3874,1.3904,1.3874,1.3936,1.3942,1.3931,1.3922,1.3936,1.3938,1.3946,1.3936,1.3901,1.39,1.3899,1.3898,0,1.4033,1.3991,1.405,1.402,1.4014,1.4063,1.4039,1.4073,1.4047,1.409,1.4098,1.4059,1.409,1.4052,1.4081,1.4061,1.4146,1.4123,1.4146,1.414,1.4211,1.4205,1.4448,1.4477,1.4245,1.4248,1.425,0,1.4145,1.4189,1.4162,1.4178,1.4172,1.42,1.4212,1.4158,1.4174,1.4171,1.4206,1.423,1.4247,1.4301,1.4277,1.4299,1.4276,1.436,1.428,1.4292,1.4278,1.4276,1.428,1.4377,1.438,1.4382,1.4384,0,1.4349,1.4325,1.4343,1.4353,1.4368,1.4375,1.4377,1.4395,1.4339,1.436,1.4388,1.4401,1.4428,1.4455,1.4469,1.4464,1.4416,1.4409,1.4426,1.4442,1.4453,1.4448,1.4191,1.4404,1.4402,1.4401,1.4399,1.4399,1.4504,1.4538,1.4524,1.4546,1.4541,1.4544,1.4574,1.455,1.4572,1.4587,1.4555,1.4592,1.4587,1.4601,1.46,1.463,1.4595,1.462,1.4626,1.4633,1.4644,1.4448,1.4633,1.4632,1.4632,1.4631,1.4631,0,1.4704,1.4691,1.4711,1.4714,1.4731,1.468,1.468,1.4699,1.473,1.4728,1.4744,1.4778,1.4802,1.4779,1.48,1.4828,1.4807,1.4835,1.4833,1.4833,1.4675,1.4657,1.4852,1.4852,1.4852,1.4852,1.4852,1.4852,1.4811,1.4866,1.484,1.4893,1.488,1.4912,1.4917,1.492,1.4917,1.4955,1.4974,1.4957,1.4947,1.4966,1.4987,1.4979,1.499,1.5027,1.5013,1.4866,1.4844,1.4823,1.4807,1.503,1.503,1.5168,1.5169,1.517]},{"header":{"parameterUnit":"m.s-1","parameterCategory":1,"la1":30.2991,"la2":30.254,"lo1":-89.0895,"lo2":-89.0444,"dy":0.0017,"dx":0.0017,"nx":28,"ny":28,"refTime":"2024-07-22T03:00:00:Z","depth":0,"parameterNumber":3,"parameterNumberName":"V-component_of_WINDS"},"data":[0,0,0,0,0,0,0,0,0,0,0,0,0,0,0,0,0,0,0,0,0,0,0,0,0,0,0,0,0,0,0,0,0,0,0,0,0,0,0,0,0,0,0,0,0,0,0,0,0,0,0,0,0,0,0,0,0,0,0.2642,0.2642,0,0.2611,0.261,0.261,0.2595,0.2595,0.2595,0.2595,0.2559,0.2558,0.2557,0,0,0,0,0,0,0,0,0,0,0,0,0,0.2686,0.2685,0.2642,0.2642,0.2642,0.2611,0.261,0.261,0.2595,0.2595,0.2595,0.2595,0.2559,0.2558,0.2557,0,0,0,0,0,0,0,0,0,0,0,0,0,0.2662,0.2685,0.2642,0.2631,0.2629,0.2611,0.261,0.261,0.2595,0.2595,0.2595,0.2595,0.256,0.2558,0.2557,0.2547,0,0,0.2552,0.2552,0,0,0,0,0,0,0,0,0.2663,0.266,0.2633,0.2631,0.263,0.2607,0.2612,0.2589,0.2595,0.2608,0.2595,0.2595,0.2575,0.2572,0.2566,0.2545,0.2543,0.2552,0.2551,0.255,0.255,0,0,0,0,0,0,0,0.2665,0.2661,0.263,0.2632,0.263,0.2625,0.2622,0.2608,0.2591,0.2607,0.2606,0.2602,0.2574,0.2567,0.2565,0.2543,0.2552,0.2551,0.255,0.2549,0.2512,0.2512,0,0,0,0,0,0,0.2669,0.2663,0.2631,0.2629,0.2647,0.2625,0.2621,0.2614,0.2591,0.2588,0.2602,0.2602,0.257,0.2567,0.2563,0.255,0.2551,0.2549,0.2548,0.2512,0.2512,0.2512,0,0,0,0,0,0,0.267,0.2666,0.2632,0.2646,0.2641,0.2624,0.2616,0.2614,0.2607,0.2588,0.2585,0.2599,0.257,0.2566,0.2551,0.2549,0.2548,0.2547,0.2512,0.2512,0.2512,0.2524,0,0,0,0,0,0,0.2671,0.2667,0.2664,0.2646,0.264,0.2622,0.2616,0.2613,0.2605,0.2604,0.2584,0.2581,0.2569,0.2553,0.255,0.2547,0.2546,0.2512,0.2512,0.2512,0.2523,0.2524,0.2524,0,0,0,0,0,0.2673,0.2668,0.2664,0.266,0.2636,0.2622,0.2618,0.2606,0.2605,0.2601,0.2589,0.2581,0.255,0.2552,0.2548,0.2544,0.2512,0.2512,0.2512,0.2523,0.2524,0.2524,0,0,0,0,0,0,0.2684,0.2665,0.266,0.2649,0.2637,0.2619,0.2614,0.2608,0.2595,0.2594,0.2579,0.2574,0.2561,0.2551,0.2554,0.2533,0.253,0.2529,0.254,0.2541,0.2541,0.2544,0.2545,0,0,0,0,0,0.2686,0.2677,0.266,0.2652,0.2646,0.2631,0.2624,0.2616,0.2602,0.2597,0.2584,0.257,0.2556,0.2548,0.2535,0.2522,0.2517,0.2517,0.2517,0.2518,0.2517,0.2509,0.2509,0.2511,0.2511,0.2511,0,0,0.2689,0.2677,0.2672,0.2654,0.2643,0.2633,0.2627,0.2616,0.2608,0.2595,0.2581,0.2571,0.2554,0.254,0.2533,0.2531,0.2515,0.2518,0.2518,0.2517,0.2509,0.2508,0.2508,0.2511,0.2511,0.2511,0,0,0.2688,0.2679,0.2671,0.2661,0.2646,0.2636,0.2634,0.2617,0.261,0.2596,0.2586,0.2575,0.2552,0.2541,0.2532,0.2527,0.2519,0.2523,0.2525,0.2517,0.2517,0.2517,0.2515,0.2514,0.2522,0.2522,0.2522,0,0.2693,0.2678,0.2667,0.2657,0.2649,0.2638,0.2629,0.262,0.2601,0.2595,0.2593,0.2565,0.2552,0.2536,0.2535,0.2528,0.2524,0.2525,0.2518,0.2518,0.2518,0.2515,0.2515,0.2522,0.2522,0.2522,0.2522,0,0.2685,0.2675,0.267,0.2653,0.2645,0.2635,0.2621,0.2614,0.2606,0.2596,0.2581,0.2566,0.255,0.2545,0.2537,0.2527,0.2526,0.2522,0.2518,0.2518,0.2516,0.2515,0.2523,0.2523,0.2523,0.2523,0,0,0.2691,0.2669,0.2667,0.2659,0.2642,0.2633,0.2622,0.2608,0.2601,0.2588,0.2578,0.2559,0.2555,0.2545,0.2536,0.2529,0.2525,0.2525,0.2524,0.2525,0.2512,0.2516,0.2515,0.252,0.252,0.252,0.2514,0,0.2688,0.2671,0.266,0.2647,0.2637,0.2626,0.2616,0.2604,0.2594,0.2583,0.2571,0.2558,0.2554,0.2548,0.254,0.2527,0.2522,0.2528,0.251,0.2509,0.2515,0.2514,0.2518,0.2513,0.2513,0.2513,0.2512,0,0.2683,0.2671,0.2657,0.2641,0.2636,0.2628,0.2613,0.2603,0.2588,0.2582,0.2571,0.2561,0.2548,0.2546,0.2528,0.2531,0.2523,0.2516,0.2515,0.2513,0.2511,0.2512,0.2511,0.251,0.2511,0.2511,0.2511,0,0.2689,0.2669,0.2658,0.2652,0.2632,0.2627,0.2618,0.2604,0.2595,0.2582,0.2576,0.2561,0.2552,0.254,0.2526,0.2526,0.2509,0.2505,0.2502,0.2502,0.2499,0.2499,0.2497,0.2494,0.2494,0.2494,0.2494,0,0.2687,0.2678,0.2661,0.2654,0.2644,0.2631,0.2621,0.2611,0.2598,0.2588,0.2577,0.2568,0.255,0.2538,0.2527,0.2513,0.2509,0.2502,0.25,0.2504,0.2504,0.2498,0.2498,0.2493,0.2494,0.2494,0.2494,0,0.2691,0.268,0.2667,0.265,0.2645,0.2638,0.2623,0.2615,0.2605,0.2592,0.2588,0.2571,0.2557,0.2542,0.2521,0.2514,0.25,0.2496,0.2506,0.2504,0.2501,0.2502,0.2495,0.2493,0.2491,0.2491,0.2491,0,0.2691,0.2685,0.2667,0.266,0.2652,0.2641,0.2633,0.262,0.2611,0.2593,0.2588,0.2572,0.256,0.2536,0.2521,0.2505,0.2501,0.2499,0.2498,0.2502,0.2501,0.2501,0.25,0.25,0.25,0.25,0.25,0,0.2691,0.2686,0.2675,0.2662,0.2653,0.2642,0.263,0.2625,0.2609,0.2599,0.2585,0.2575,0.2555,0.254,0.2522,0.2511,0.2503,0.2501,0.2499,0.2503,0.2509,0.2505,0.2507,0.2501,0.2501,0.2501,0.2501,0.2501,0.2693,0.2687,0.2674,0.2662,0.2652,0.2641,0.2633,0.2622,0.261,0.2594,0.2586,0.2572,0.2556,0.2532,0.2521,0.2508,0.2506,0.2504,0.2503,0.2502,0.2503,0.2511,0.2505,0.2505,0.2505,0.2505,0.2505,0,0.2693,0.2684,0.2673,0.2658,0.2648,0.2642,0.2629,0.2621,0.2609,0.2595,0.2583,0.2566,0.2551,0.2535,0.2519,0.2512,0.2507,0.2508,0.2508,0.2506,0.2506,0.251,0.2512,0.2512,0.2512,0.2512,0.2512,0.2512,0.2692,0.2681,0.2673,0.2657,0.2647,0.2634,0.2627,0.2616,0.2606,0.2588,0.2576,0.2566,0.2551,0.2534,0.2519,0.2515,0.2509,0.2511,0.2505,0.2506,0.2506,0.2505,0.2508,0.251,0.251,0.2505,0.2505,0.2505]}]]